TimeEDT,TemperatureF,Dew PointF,Humidity,Sea Level PressureIn,VisibilityMPH,Wind Direction,Wind SpeedMPH,Gust SpeedMPH,PrecipitationIn,Events,Conditions,WindDirDegrees,DateUTC
12:51 AM,59.0,57.9,96,30.06,6.0,Calm,Calm,-,0.00,,Overcast,0,2012-10-03 04:51:00
1:46 AM,57.2,57.2,100,30.06,5.0,Calm,Calm,-,N/A,,Overcast,0,2012-10-03 05:46:00
1:51 AM,57.9,57.9,100,30.06,5.0,Calm,Calm,-,N/A,,Overcast,0,2012-10-03 05:51:00
2:37 AM,59.0,57.2,94,30.05,1.8,Calm,Calm,-,0.00,Rain,Light Rain,0,2012-10-03 06:37:00
2:51 AM,59.0,57.9,96,30.05,1.8,Calm,Calm,-,0.01,Rain,Light Rain,0,2012-10-03 06:51:00
2:58 AM,59.0,57.2,94,30.05,2.0,Calm,Calm,-,0.00,Rain,Light Rain,0,2012-10-03 06:58:00
3:06 AM,59.0,57.2,94,30.05,1.8,Calm,Calm,-,0.01,Rain,Light Rain,0,2012-10-03 07:06:00
3:14 AM,59.0,57.2,94,30.05,2.5,Calm,Calm,-,0.01,,Overcast,0,2012-10-03 07:14:00
3:32 AM,59.0,57.2,94,30.05,2.5,Calm,Calm,-,0.02,Rain,Light Rain,0,2012-10-03 07:32:00
3:37 AM,59.0,57.2,94,30.05,3.0,Calm,Calm,-,0.02,,Overcast,0,2012-10-03 07:37:00
3:45 AM,59.0,57.2,94,30.05,1.8,Calm,Calm,-,0.02,Rain,Light Rain,0,2012-10-03 07:45:00
3:51 AM,59.0,57.9,96,30.05,1.8,Calm,Calm,-,0.02,Rain,Light Rain,0,2012-10-03 07:51:00
3:59 AM,57.2,57.2,100,30.05,3.0,Calm,Calm,-,0.00,,Overcast,0,2012-10-03 07:59:00
4:16 AM,57.2,57.2,100,30.06,3.0,Calm,Calm,-,0.00,,Overcast,0,2012-10-03 08:16:00
4:48 AM,59.0,57.2,94,30.06,2.0,Calm,Calm,-,0.00,Rain,Light Rain,0,2012-10-03 08:48:00
4:51 AM,59.0,57.9,96,30.06,1.8,Calm,Calm,-,0.00,Rain,Light Rain,0,2012-10-03 08:51:00
5:13 AM,59.0,57.2,94,30.07,2.5,Calm,Calm,-,0.01,,Overcast,0,2012-10-03 09:13:00
5:22 AM,59.0,57.2,94,30.07,3.0,Calm,Calm,-,0.01,,Overcast,0,2012-10-03 09:22:00
5:35 AM,59.0,57.2,94,30.07,2.0,Calm,Calm,-,0.01,,Overcast,0,2012-10-03 09:35:00
5:51 AM,57.9,57.9,100,30.08,1.2,Calm,Calm,-,0.01,Rain,Light Rain,0,2012-10-03 09:51:00
6:42 AM,57.2,57.2,100,30.08,1.0,Calm,Calm,-,0.01,,Overcast,0,2012-10-03 10:42:00
6:51 AM,57.9,57.9,100,30.09,1.2,Calm,Calm,-,0.01,,Overcast,0,2012-10-03 10:51:00
6:58 AM,57.2,57.2,100,30.08,0.8,Calm,Calm,-,0.01,Rain,Light Rain,0,2012-10-03 10:58:00
7:11 AM,59.0,57.2,94,30.09,1.0,Calm,Calm,-,0.01,Rain,Light Rain,0,2012-10-03 11:11:00
7:20 AM,59.0,57.2,94,30.09,1.0,Calm,Calm,-,0.02,Rain,Light Rain,0,2012-10-03 11:20:00
7:36 AM,57.2,57.2,100,30.10,1.2,Calm,Calm,-,0.02,Rain,Light Rain,0,2012-10-03 11:36:00
7:51 AM,59.0,57.9,96,30.11,1.0,Calm,Calm,-,0.05,Rain,Light Rain,0,2012-10-03 11:51:00
8:05 AM,59.0,57.2,94,30.11,1.8,Calm,Calm,-,0.01,Rain,Light Rain,0,2012-10-03 12:05:00
8:07 AM,59.0,57.2,94,30.11,2.0,Calm,Calm,-,N/A,Rain,Light Rain,0,2012-10-03 12:07:00
8:14 AM,59.0,57.2,94,30.11,3.0,Calm,Calm,-,0.01,Rain,Light Rain,0,2012-10-03 12:14:00
8:29 AM,60.8,57.2,88,30.12,1.8,Calm,Calm,-,0.01,Rain,Light Rain,0,2012-10-03 12:29:00
8:32 AM,60.8,59.0,94,30.12,1.2,Calm,Calm,-,0.01,Rain,Light Rain,0,2012-10-03 12:32:00
8:40 AM,60.8,59.0,94,30.12,0.8,Calm,Calm,-,0.01,Rain,Light Rain,0,2012-10-03 12:40:00
8:51 AM,60.1,59.0,96,30.12,0.8,NNE,3.5,-,0.03,Rain,Light Rain,30,2012-10-03 12:51:00
8:55 AM,60.8,59.0,94,30.12,1.0,NE,3.5,-,0.00,Rain,Light Rain,40,2012-10-03 12:55:00
9:03 AM,60.8,59.0,94,30.12,1.5,ENE,3.5,-,0.00,Rain,Light Rain,60,2012-10-03 13:03:00
9:36 AM,60.8,59.0,94,30.11,2.0,Calm,Calm,-,0.01,,Overcast,0,2012-10-03 13:36:00
9:51 AM,60.1,59.0,96,30.12,2.5,Calm,Calm,-,0.01,,Overcast,0,2012-10-03 13:51:00
9:55 AM,60.8,59.0,94,30.12,3.0,Calm,Calm,-,N/A,,Overcast,0,2012-10-03 13:55:00
10:04 AM,60.8,59.0,94,30.11,2.0,Calm,Calm,-,N/A,,Overcast,0,2012-10-03 14:04:00
10:25 AM,60.8,60.8,100,30.12,3.0,Calm,Calm,-,N/A,,Overcast,0,2012-10-03 14:25:00
10:51 AM,61.0,60.1,97,30.13,2.5,Calm,Calm,-,N/A,,Overcast,0,2012-10-03 14:51:00
11:01 AM,60.8,60.8,100,30.13,1.5,North,4.6,-,N/A,,Overcast,360,2012-10-03 15:01:00
11:09 AM,60.8,60.8,100,30.13,1.0,NNE,4.6,-,0.01,Rain,Rain,30,2012-10-03 15:09:00
11:33 AM,60.8,60.8,100,30.13,2.0,NNE,4.6,-,0.05,Rain,Light Rain,20,2012-10-03 15:33:00
11:48 AM,60.8,60.8,100,30.12,3.0,NNE,5.8,-,0.07,Rain,Light Rain,30,2012-10-03 15:48:00
11:49 AM,61.0,60.1,97,30.13,3.0,NNE,5.8,-,0.07,Rain,Light Rain,30,2012-10-03 15:49:00
12:04 PM,60.8,60.8,100,30.12,7.0,Variable,4.6,-,0.01,Rain,Light Rain,0,2012-10-03 16:04:00
12:51 PM,62.1,60.1,93,30.12,4.0,ENE,3.5,-,0.01,Rain,Light Rain,70,2012-10-03 16:51:00
1:03 PM,62.6,60.8,94,30.11,4.0,ENE,3.5,-,0.00,,Overcast,60,2012-10-03 17:03:00
1:51 PM,63.0,61.0,93,30.11,4.0,NE,3.5,-,0.00,,Overcast,50,2012-10-03 17:51:00
2:12 PM,62.6,60.8,94,30.10,1.8,NE,4.6,-,N/A,,Overcast,50,2012-10-03 18:12:00
2:23 PM,62.6,60.8,94,30.11,3.0,Calm,Calm,-,N/A,,Overcast,0,2012-10-03 18:23:00
2:51 PM,63.0,61.0,93,30.11,7.0,NE,4.6,-,N/A,,Overcast,40,2012-10-03 18:51:00
3:51 PM,63.0,60.1,90,30.11,10.0,East,4.6,-,0.00,,Overcast,100,2012-10-03 19:51:00
4:18 PM,62.6,60.8,94,30.12,3.0,Calm,Calm,-,N/A,,Overcast,0,2012-10-03 20:18:00
4:24 PM,62.6,60.8,94,30.11,2.5,East,3.5,-,N/A,,Overcast,90,2012-10-03 20:24:00
4:46 PM,62.6,60.8,94,30.12,3.0,ENE,3.5,-,N/A,,Overcast,70,2012-10-03 20:46:00
4:51 PM,62.1,61.0,96,30.12,4.0,Calm,Calm,-,N/A,,Overcast,0,2012-10-03 20:51:00
5:01 PM,62.6,60.8,94,30.12,1.8,Calm,Calm,-,N/A,,Overcast,0,2012-10-03 21:01:00
5:21 PM,62.6,60.8,94,30.13,2.0,ENE,3.5,-,N/A,,Overcast,70,2012-10-03 21:21:00
5:51 PM,62.1,61.0,96,30.13,3.0,NE,3.5,-,N/A,,Overcast,50,2012-10-03 21:51:00
6:09 PM,62.6,60.8,94,30.13,10.0,Calm,Calm,-,N/A,,Overcast,0,2012-10-03 22:09:00
6:51 PM,61.0,60.1,97,30.14,8.0,Calm,Calm,-,N/A,,Overcast,0,2012-10-03 22:51:00
7:00 PM,60.8,60.8,100,30.14,10.0,Calm,Calm,-,N/A,,Overcast,0,2012-10-03 23:00:00
7:24 PM,60.8,59.0,94,30.14,10.0,East,4.6,-,N/A,,Overcast,90,2012-10-03 23:24:00
7:51 PM,61.0,59.0,93,30.15,8.0,Calm,Calm,-,N/A,,Overcast,0,2012-10-03 23:51:00
8:32 PM,60.8,59.0,94,30.15,10.0,ENE,3.5,-,N/A,,Overcast,70,2012-10-04 00:32:00
8:51 PM,60.1,59.0,96,30.16,10.0,Calm,Calm,-,N/A,,Overcast,0,2012-10-04 00:51:00
9:23 PM,60.8,59.0,94,30.17,10.0,Calm,Calm,-,N/A,,Overcast,0,2012-10-04 01:23:00
9:44 PM,60.8,59.0,94,30.16,10.0,Calm,Calm,-,N/A,,Overcast,0,2012-10-04 01:44:00
9:51 PM,60.1,59.0,96,30.17,10.0,Calm,Calm,-,N/A,,Overcast,0,2012-10-04 01:51:00
10:24 PM,59.0,57.2,94,30.16,10.0,Calm,Calm,-,N/A,,Overcast,0,2012-10-04 02:24:00
10:51 PM,59.0,57.2,94,30.17,7.0,Calm,Calm,-,N/A,Rain,Light Rain,0,2012-10-04 02:51:00
11:03 PM,59.0,57.2,94,30.17,10.0,Calm,Calm,-,N/A,,Overcast,0,2012-10-04 03:03:00
11:51 PM,60.1,59.0,96,30.18,10.0,Calm,Calm,-,0.00,,Overcast,0,2012-10-04 03:51:00